sat.trackr.live / text

‹ back to catalog

ERMIS-1

NORAD 68468 · 2026-067BE

PAYLOAD ACTIVE UNKNOWN

§ Identity

Operator
Country
GREC
Launch date
2026-03-30
Launch site
AFWTR
Launch vehicle
Mass (kg)
RCS (m²)

External: N2YO · Heavens-Above · Gunter

§ Orbital elements

Epoch: 2026-05-24T20:20:51.507168Z

Period
94.91 min
Inclination
97.4535°
Eccentricity
0.0008411
Mean motion
15.17260231 rev/d
Perigee alt
508.3 km
Apogee alt
519.9 km
Semi-major
6,892.3 km
B*
3.9257e-4
RAAN
103.5725°
Arg perigee
126.6077°
Mean anomaly
233.5931°
Rev number
839

§ Raw data

ERMIS-11 68468U 26067BE  26144.84781837  .00007757  00000+0  39257-3 0  99902 68468  97.4535 103.5725 0008411 126.6077 233.5931 15.17260231  8397

JSON: /api/v1/satellites/68468 · /tle

For live sub-satellite position, see the globe view (requires WebGL).

§ Visibility from observer

Set your observer location to see the next 7 days of passes ≥ 10°. The values pass through the URL so the page stays shareable.

No JS? Fill the form by hand. The geolocation button needs JavaScript.

§ Radio — SatNOGS DB

ModeDescriptionDownlinkUplink
FM Mode S - Transmitter 2.218 GHz
FSK AX.100 Mode 5 Mode U - Transmitter 401.550 MHz

2 transmitters · refreshed weekly from db.satnogs.org